Starlink 31446

operational
NORAD ID: 59315 Int'l Des: 2024-056 Owner: SPXS Country: US Constellation: starlink
LEOCIRCULAR

About Starlink 31446

Description loading...

Live Position

Loading 3D Globe...

Upcoming Passes

Altitude History

Altitude vs Time

uPlot chart will show altitude changes over time

Two-Line Element Set

1 59315U 24056V 25351.01566167 .00000119 00000-0 13821-4 0 9998
2 59315 43.0009 337.3295 0000314 199.0456 161.0384 15.27584366 98518
Epoch: Dec 17, 2025 • Age: 31 hours

Current Status

Altitude 489.4 km
Velocity 7.62 km/s
Sub-Earth Point -25.47°S, 98.41°E
Launch Date Mar 24, 2024
Age 1.7 years
Type internet

Technical Details

Classification Payload
Mass 730.00 kg
Dry Mass 700.00 kg
Total Mass 730.00 kg
Length 0.30 m
Diameter 4.10 m
Span 29.00 m
Shape Box + pan
Manufacturer SPXS
Bus Type Starlink V2M
Phase Status In Orbit
Owner/State SPXS/US

Large Constellations

Loading constellations...